Red Wing, WI

12:18 PM CDT on May 24, 2017 (GMT -0500)
Red Wing Municipal

Weather History for KRGK - May, 2013

Change the Weather History Date:

Sunday, May 5, 2013

  Actual Average Record
Temperature  
Mean Temperature 53 °F -  
Max Temperature 69 °F 63 °F 87 °F (2000)
Min Temperature 37 °F 42 °F 28 °F (2002)
Degree Days  
Heating Degree Days 12    
Growing Degree Days 3 (Base 50)    
Moisture  
Dew Point 42 °F    
Average Humidity 72    
Maximum Humidity 93    
Minimum Humidity 46    
Precipitation  
Precipitation 0.00 in - - ()
Sea Level Pressure  
Sea Level Pressure 30.11 in    
Wind  
Wind Speed 2 mph (North)    
Max Wind Speed 6 mph    
Max Gust Speed -    
Visibility 10 miles    
Events      
Averages and records for this station are not official NWS values.
T = Trace of Precipitation, MM = Missing Value Source: NWS Daily Summary

Daily Weather History Graph

Daily Weather History Graph

Search for Another Location

Airport or City:

Trip Planner

Search our weather history database for the weather conditions in past years. The results will help you decide how hot, cold, wet, or windy it might be!

Date:

Astronomy

May. 05, 2013 Rise Set
Actual Time 5:54 AM CDT 8:19 PM CDT
Civil Twilight 5:21 AM CDT 8:52 PM CDT
Nautical Twilight 4:41 AM CDT 9:33 PM CDT
Astronomical Twilight 3:55 AM CDT 10:19 PM CDT
Moon 3:35 AM CDT (5/5) 4:10 PM CDT (5/5)
Length of Visible Light 15h 30m
Length of Day
14h 25m
Waning Crescent, 18% of the Moon is Illuminated
May 5
Waning Crescent
May 9
New
May 17
First Quarter
May 24
Full
May 31
Last Quarter

Hourly Weather History & Observations

Time (CDT) Temp. Windchill Dew Point Humidity Pressure Visibility Wind Dir Wind Speed Gust Speed Precip Events Conditions
12:15 AM 41.0 °F 39.0 °F 37.4 °F 87% 30.15 in 10.0 mi North 3.5 mph - N/A   Clear
12:35 AM 41.0 °F 39.0 °F 35.6 °F 81% 30.15 in 10.0 mi North 3.5 mph - N/A   Clear
12:55 AM 41.0 °F - 35.6 °F 81% 30.14 in 10.0 mi Calm Calm - N/A   Clear
1:15 AM 41.0 °F - 35.6 °F 81% 30.14 in 10.0 mi Calm Calm - N/A   Clear
1:35 AM 41.0 °F - 35.6 °F 81% 30.13 in 10.0 mi Calm Calm - N/A   Scattered Clouds
1:55 AM 41.0 °F - 35.6 °F 81% 30.13 in 10.0 mi Calm Calm - N/A   Scattered Clouds
2:14 AM 39.2 °F - 35.6 °F 87% 30.13 in 10.0 mi Calm Calm - N/A   Clear
2:35 AM 39.2 °F - 35.6 °F 87% 30.13 in 10.0 mi Calm Calm - N/A   Clear
2:55 AM 39.2 °F - 35.6 °F 87% 30.12 in 10.0 mi Calm Calm - N/A   Clear
3:15 AM 39.2 °F - 35.6 °F 87% 30.12 in 10.0 mi Calm Calm - N/A   Clear
3:35 AM 39.2 °F - 33.8 °F 81% 30.11 in 10.0 mi Calm Calm - N/A   Clear
3:55 AM 39.2 °F 37.0 °F 33.8 °F 81% 30.12 in 10.0 mi NNW 3.5 mph - N/A   Clear
4:15 AM 39.2 °F - 33.8 °F 81% 30.13 in 10.0 mi Calm Calm - N/A   Clear
4:35 AM 39.2 °F - 35.6 °F 87% 30.13 in 10.0 mi Calm Calm - N/A   Clear
4:55 AM 37.4 °F - 33.8 °F 87% 30.13 in 10.0 mi Calm Calm - N/A   Clear
5:15 AM 37.4 °F 34.9 °F 35.6 °F 93% 30.12 in 10.0 mi NNW 3.5 mph - N/A   Clear
5:35 AM 39.2 °F - 35.6 °F 87% 30.13 in 10.0 mi Calm Calm - N/A   Clear
5:55 AM 37.4 °F - 35.6 °F 93% 30.13 in 10.0 mi Calm Calm - N/A   Clear
6:15 AM 37.4 °F - 35.6 °F 93% 30.14 in 10.0 mi Calm Calm - N/A   Clear
6:35 AM 39.2 °F - 35.6 °F 87% 30.14 in 10.0 mi Calm Calm - N/A   Clear
6:55 AM 39.2 °F - 35.6 °F 87% 30.15 in 10.0 mi Calm Calm - N/A   Clear
7:15 AM 39.2 °F - 35.6 °F 87% 30.15 in 10.0 mi Calm Calm - N/A   Scattered Clouds
7:35 AM 39.2 °F - 35.6 °F 87% 30.15 in 10.0 mi Calm Calm - N/A   Scattered Clouds
7:55 AM 41.0 °F - 35.6 °F 81% 30.15 in 10.0 mi Calm Calm - N/A   Clear
8:15 AM 41.0 °F 39.0 °F 35.6 °F 81% 30.15 in 10.0 mi North 3.5 mph - N/A   Clear
8:35 AM 42.8 °F 41.1 °F 35.6 °F 76% 30.15 in 10.0 mi North 3.5 mph - N/A   Clear
8:55 AM 42.8 °F 39.3 °F 35.6 °F 76% 30.15 in 10.0 mi North 5.8 mph - N/A   Clear
9:15 AM 44.6 °F 41.4 °F 37.4 °F 76% 30.15 in 10.0 mi North 5.8 mph - N/A   Clear
9:35 AM 44.6 °F 43.1 °F 37.4 °F 76% 30.15 in 10.0 mi NNW 3.5 mph - N/A   Clear
9:55 AM 46.4 °F 43.5 °F 37.4 °F 71% 30.15 in 10.0 mi North 5.8 mph - N/A   Clear
10:15 AM 46.4 °F 44.3 °F 37.4 °F 71% 30.14 in 10.0 mi NE 4.6 mph - N/A   Clear
10:35 AM 48.2 °F - 39.2 °F 71% 30.14 in 10.0 mi ENE 5.8 mph - N/A   Clear
11:00 AM 50.0 °F - 39.2 °F 66% 30.14 in 10.0 mi Calm Calm - N/A   Clear
11:15 AM 51.8 °F - 39.2 °F 62% 30.14 in 10.0 mi Calm Calm - N/A   Clear
11:35 AM 51.8 °F - 41.0 °F 67% 30.14 in 10.0 mi Calm Calm - N/A   Clear
11:55 AM 53.6 °F - 42.8 °F 67% 30.13 in 10.0 mi Calm Calm - N/A   Clear
12:15 PM 55.4 °F - 42.8 °F 63% 30.13 in 10.0 mi Calm Calm - N/A   Clear
12:35 PM 55.4 °F - 44.6 °F 67% 30.12 in 10.0 mi Calm Calm - N/A   Clear
1:15 PM 57.2 °F - 46.4 °F 67% 30.11 in 10.0 mi NE 4.6 mph - N/A   Clear
1:35 PM 57.2 °F - 44.6 °F 63% 30.11 in 10.0 mi Calm Calm - N/A   Clear
1:55 PM 60.8 °F - 44.6 °F 55% 30.10 in 10.0 mi South 3.5 mph - N/A   Clear
2:15 PM 60.8 °F - 46.4 °F 59% 30.10 in 10.0 mi South 3.5 mph - N/A   Clear
2:35 PM 62.6 °F - 46.4 °F 55% 30.09 in 10.0 mi Calm Calm - N/A   Clear
2:55 PM 62.6 °F - 46.4 °F 55% 30.09 in 10.0 mi SSW 3.5 mph - N/A   Clear
3:15 PM 64.4 °F - 48.2 °F 56% 30.07 in 10.0 mi SE 5.8 mph - N/A   Clear
3:35 PM 66.2 °F - 48.2 °F 52% 30.07 in 10.0 mi Calm Calm - N/A   Clear
3:55 PM 66.2 °F - 50.0 °F 56% 30.06 in 10.0 mi ESE 3.5 mph - N/A   Clear
4:15 PM 66.2 °F - 50.0 °F 56% 30.06 in 10.0 mi Calm Calm - N/A   Clear
4:35 PM 68.0 °F - 50.0 °F 52% 30.05 in 10.0 mi NW 3.5 mph - N/A   Clear
4:55 PM 68.0 °F - 48.2 °F 49% 30.05 in 10.0 mi WNW 3.5 mph - N/A   Clear
5:15 PM 68.0 °F - 48.2 °F 49% 30.05 in 10.0 mi WNW 3.5 mph - N/A   Clear
5:35 PM 69.8 °F - 48.2 °F 46% 30.05 in 10.0 mi NNW 4.6 mph - N/A   Clear
5:55 PM 68.0 °F - 48.2 °F 49% 30.05 in 10.0 mi North 4.6 mph - N/A   Clear
6:15 PM 68.0 °F - 48.2 °F 49% 30.05 in 10.0 mi North 5.8 mph - N/A   Clear
6:35 PM 69.8 °F - 50.0 °F 49% 30.05 in 10.0 mi North 5.8 mph - N/A   Clear
7:15 PM 66.2 °F - 48.2 °F 52% 30.05 in 10.0 mi NNW 4.6 mph - N/A   Clear
7:35 PM 66.2 °F - 50.0 °F 56% 30.05 in 10.0 mi Calm Calm - N/A   Clear
7:55 PM 64.4 °F - 48.2 °F 56% 30.05 in 10.0 mi Calm Calm - N/A   Clear
8:14 PM 64.4 °F - 48.2 °F 56% 30.05 in 10.0 mi Calm Calm - N/A   Clear
8:35 PM 60.8 °F - 50.0 °F 68% 30.06 in 10.0 mi Calm Calm - N/A   Clear
8:55 PM 59.0 °F - 50.0 °F 72% 30.06 in 10.0 mi NNW 3.5 mph - N/A   Clear
9:35 PM 55.4 °F - 48.2 °F 77% 30.07 in 10.0 mi Calm Calm - N/A   Clear
9:55 PM 53.6 °F - 48.2 °F 82% 30.07 in 10.0 mi Calm Calm - N/A   Clear
10:15 PM 53.6 °F - 48.2 °F 82% 30.06 in 10.0 mi Calm Calm - N/A   Clear
10:35 PM 53.6 °F - 48.2 °F 82% 30.07 in 10.0 mi Calm Calm - N/A   Clear
10:55 PM 51.8 °F - 46.4 °F 82% 30.07 in 10.0 mi Calm Calm - N/A   Clear
11:15 PM 50.0 °F - 46.4 °F 87% 30.07 in 10.0 mi North 3.5 mph - N/A   Clear
11:35 PM 48.2 °F - 46.4 °F 93% 30.07 in 10.0 mi Calm Calm - N/A   Clear
11:55 PM 46.4 °F - 44.6 °F 93% 30.07 in 10.0 mi Calm Calm - N/A   Clear